Tracking 19247 objects as of 24-Sep-2018
HD Live streaming from Space Station
objects crossing your sky now

FENGYUN 1C DEB

Track FENGYUN 1C DEB now!
10-day predictions


NORAD ID: 32209
Int'l Code: 1999-025CVF
Perigee: 852.7 km
Apogee: 1,377.1 km
Inclination: 99.4 °
Period: 107.4 minutes
Semi major axis: 7485 km
RCS: 0.0093 m2 (small)
Launch date: May 10, 1999
Source: People's Republic of China (PRC)
Launch site: Taiyaun Space Center, China (TSC)

Note: This is SATELLITE DEBRIS
aabbcc
Your satellite tracking list
Your tracking list is empty




NASA's NSSDC Master Catalog

Two Line Element Set (TLE):
1 32209U 99025CVF 18266.20746437 -.00000146 +00000-0 -13743-3 0  9991
2 32209 099.4352 354.7544 0350264 087.8027 276.3161 13.40413164545876
Source of the keplerian elements: AFSPC